Regional Weather Roundup
Issued by NWS

Home | Current Version | Previous Version | Graphics & Text | Print | Product List | Glossary On
Versions: 1 2 3 4 5 6 7 8 9 10 11 12 13 14 15 16 17 18 19 20 21 22 23 24 25 26 27 28 29 30 31 32 33 34 35 36 37 38 39 40 41 42 43 44 45 46 47 48 49 50
000
ASUS43 KLOT 261503
RWRIL

ILLINOIS REGIONAL WEATHER ROUNDUP
NATIONAL WEATHER SERVICE CHICAGO/ROMEOVILLE IL
1000 AM CDT FRI AUG 26 2016

NOTE: "FAIR" INDICATES FEW OR NO CLOUDS BELOW 12,000 FEET WITH NO
SIGNIFICANT WEATHER AND/OR OBSTRUCTIONS TO VISIBILITY.

* THESE STATIONS ARE NOT UNDER NWS QUALITY CONTROL. THEY ALSO MAY NOT
  REPORT WEATHER SUCH AS PRECIPITATION OR FOG.

ILZ001-002-007-009-015-016-024-261600-
NORTHWEST ILLINOIS

CITY           SKY/WX    TMP DP  RH WIND       PRES   REMARKS
MOLINE         CLOUDY    71  60  68 E7        30.18R
STERLING*      LGT RAIN  69  63  81 NE9       30.18
SAVANNA*       PTSUNNY   68  63  82 N6        30.18F
$$

ILZ003-004-008-010-011-017-018-261600-
NORTH CENTRAL ILLINOIS

CITY           SKY/WX    TMP DP  RH WIND       PRES   REMARKS
ROCKFORD       CLOUDY    72  58  61 NE6       30.21R
FREEPORT*      CLOUDY    68  61  78 E3        30.22R
ROCHELLE*      CLOUDY    69  62  79 NE6       30.21R
$$

ILZ005-006-012>014-019>023-261600-
NORTHEAST ILLINOIS

CITY           SKY/WX    TMP DP  RH WIND       PRES   REMARKS
CHICAGO-OHARE  CLOUDY    73  59  61 CALM      30.19R
CHICAGO-MIDWAY CLOUDY    77  64  64 N6        30.18R
AURORA         CLOUDY    73  62  68 E3        30.20R
LANSING*       PTSUNNY   76  69  78 NE6       30.17S
JOLIET*        MOSUNNY   74  65  73 NE6       30.18R
WAUKEGAN       MOSUNNY   72  60  66 N5        30.19R
DUPAGE AIRPORT PTSUNNY   71  61  70 E3        30.19R
KANKAKEE*      MOSUNNY   75  68  78 NE7       30.17S
WHEELING       MOSUNNY   74  60  61 NE3       30.20R
MORRIS*        PTSUNNY   74  67  77 CALM      30.18R
ROMEOVILLE*    MOSUNNY   74  67  78 NE7       30.18S
NORTHERLY ISL    N/A     71  63  75 NW7         N/A
$$

LMZ740>746-261600-
SOUTHERN LAKE MICHIGAN

STATION/POSITION SKY/WX   TEMP    WIND        PRES    VSBY  WAVE
                          AIR SEA DIR/SP/G                  HT/PER
                          (F)     (DEG/KT/KT) (MB)    (MI)  (FT/S)
SOUTHERN BUOY              71 74   10/  8/ 10 1020.6          1/ 4
WILMETTE HARBOR            68 68   20/  8/ 12   N/A           2/ 3
HARRISON CRIB              67     320/  9/ 10   N/A
BURNHAM HARBOR             72     350/  4/  9   N/A
CALUMET HARBOR             70     330/  6/  9 1021.3R
BURNS HARBOR               73      30/  7/  9 1021.7R
MICHIGAN CITY              73      20/  5/  6   N/A
MICHIGAN CITY 6N           74 74   50/  6/  8   N/A           2/ 3
ST. JOSEPH                 74 75   60/  2/  4 1021.2R         2/ 4
$$

ILZ025>027-034>036-040-047-049-050-058-095>099-261600-
WEST-CENTRAL ILLINOIS

CITY           SKY/WX    TMP DP  RH WIND       PRES   REMARKS
QUINCY         LGT RAIN  70  70 100 NE12      30.15R
GALESBURG*     CLOUDY    71  64  78 NE6       30.18S THUNDER
MACOMB*        CLOUDY    71  66  83 NE9       30.19S THUNDER
JACKSONVILLE*  CLOUDY    74  69  85 NE9       30.14F THUNDER
PITTSFIELD*    CLOUDY    72  70  96 E7        30.15S THUNDER
$$

ILZ028>032-037-038-041>044-048-051>054-059>061-261600-
CENTRAL ILLINOIS

CITY           SKY/WX    TMP DP  RH WIND       PRES   REMARKS
PONTIAC        PTSUNNY   76  68  75 E6        30.18R
BLOOMINGTON    PTSUNNY   75  68  78 E12       30.17S
DECATUR        SUNNY     79  71  76 NE8       30.14S HX  82
PEORIA         RAIN      69  69 100 NE3       30.18R FOG
LACON*         LGT RAIN  70  64  81 NE6       30.16F
LINCOLN*       MOSUNNY   76  69  80 NE5       30.15S
SPRINGFIELD    CLOUDY    76  69  79 N10       30.15R
TAYLORVILLE    MOSUNNY   78  71  77 E9        30.13R HX  80
$$

ILZ033-039-045-046-055>057-062-063-261600-
EAST-CENTRAL ILLINOIS

CITY           SKY/WX    TMP DP  RH WIND       PRES   REMARKS
CHAMPAIGN      SUNNY     78  71  79 E8        30.15R HX  80
RANTOUL*       PTSUNNY   78  72  80 NE7       30.15S HX  81
MATTOON        SUNNY     80  73  79 E5        30.12S HX  84
PARIS*         SUNNY     81  74  78 CALM      30.14R HX  86
$$

ILZ079-100>102-261600-
SOUTHWEST ILLINOIS

CITY           SKY/WX    TMP DP  RH WIND       PRES   REMARKS
ALTON          PTSUNNY   77  70  78 E7        30.11S
BELLEVILLE     CLOUDY    84  76  76 CALM      30.09S HX  92
CAHOKIA*       CLOUDY    81  73  76 CALM      30.10S HX  86
SPARTA*        SUNNY     83  76  78 CALM      30.12R HX  91
$$

ILZ064>066-069>071-074>076-080>082-084>086-088>090-092>094-261600-
SOUTH-CENTRAL ILLINOIS

CITY           SKY/WX    TMP DP  RH WIND       PRES   REMARKS
CARBONDALE     SUNNY     85  76  74 CALM      30.11S HX  94
EFFINGHAM*     SUNNY     82  78  88 E3        30.14R HX  90
MARION         SUNNY     88  79  74 S6        30.13R HX 102
MT. VERNON     SUNNY     84  73  70 SW3       30.12S HX  91
SALEM*         MOSUNNY   85  76  74 S5        30.12R HX  93
METROPOLIS*    MOSUNNY   87  76  70 CALM      30.13S HX  97
$$

ILZ067-068-072-073-078-083-087-091-261600-
SOUTHEAST ILLINOIS

CITY           SKY/WX    TMP DP  RH WIND       PRES   REMARKS
LAWRENCEVILLE  SUNNY     84  75  74 CALM      30.13R HX  92
FLORA*         SUNNY     86  76  73 CALM      30.12S HX  96
FAIRFIELD*     SUNNY     84  76  76 CALM      30.11S HX  94
HARRISBURG*    SUNNY     84  78  81 CALM      30.12S HX  95
ROBINSON*      SUNNY     82  76  82 S3        30.13S HX  89
CARMI*         SUNNY     84  77  79 CALM      30.12S HX  94
$$

ABBREVIATIONS USED IN REMARKS
   TC - TEMPERATURE IN CELSIUS
  WCI - WIND CHILL INDEX
   HX - HEAT INDEX
  VSB - VISIBILITY
$$





USA.gov is the U.S. government's official web portal to all federal, state and local government web resources and services.